星链-32861 (STARLINK-32861)

导读

STARLINK-32861是美国SpaceX星链互联网星座的卫星,发射于2025年2月1日。星链计划旨在搭建覆盖全球的低轨卫星互联网,为全球提供高速低延迟网络服务。该卫星延续星链技术标准,部署于近地轨道,是美国星链大规模组网进程中的组成部分,支撑星座服务覆盖范围持续拓展。

基本信息
目录编号:
62870
目录名称:
STARLINK-32861
国际标识:
2025-022S
轨道中心:
EARTH
卫星名称:
星链-32861
卫星全名:
星链-32861 (STARLINK-32861)
卫星状态:
在轨 (已飞行498 天)
发射日期:
2025-02-01 UTC
国别 :
美国 (US)
星等 :
--
轨道信息
数据来源 国际轨道数据 AOE轨道数据
星历时间 2026-06-14T03:48:19+0800
12小时前
查看轨道信息
2026-06-08T23:00:00+0800
5天前
查看轨道信息
半长轴 6840.815km 6840.68km
偏心率 0.000145 0.0001154
轨道倾角 53.159° 53.158°
近地点辐角 102.087° 91.631°
升交点赤经 41.327° 65.637°
平近点角 258.029° 327.487°
近地点 461.686km 461.753km
远地点 463.67km 463.333km
周期 93.847分钟 93.844分钟
每日圈数 15.344085 15.344541
详细信息
固有亮度:
5
最大亮度:
2.5
卫星平台:
Starlink V1.0
覆盖范围:
全球
运营商:
太空探索技术公司
运营商所在国:
美国
制造商(研发单位):
太空探索技术公司
制造商所在国:
美国
使用方式:
暂无
卫星简介
Starlink 计划是 SpaceX 推出的全球卫星互联网项目,通过发射低轨道卫星,为全球尤其是偏远地区提供高速、低延迟的互联网服务。自 2019 年起,Starlink 已部署数千颗卫星,旨在缩小全球数字鸿沟,推动互联网普及。该项目还为军事、航空等行业提供通信支持,带来广泛经济效益。
2D轨道图
3D轨道图
轨道高度分析图
轨道倾角分析图
轨道综合分析图
查看轨道综合分析图